EW0641 Weather Reports


Display with metric or nautical units.
time (UTC)temp
F
wind
direction
speed
MPH
gust
MPH
rain 1hr
in
rain 24hr
in
rain mn
in
humidity
%
barometer
mb
20260506090045 49 236 0.0 0.0 0.00 0.02 0.00 67 1007.8
20260506084551 49 236 0.0 0.0 0.00 0.02 0.00 70 1008.1
20260506083046 49 234 0.0 0.0 0.00 0.02 0.00 75 1007.7
20260506081554 48 230 0.0 0.0 0.00 0.02 0.00 81 1007.7
20260506073038 48 229 0.0 0.0 0.00 0.02 0.00 83 1007.7
20260506071542 48 229 0.0 0.0 0.00 0.02 0.00 83 1007.7
20260506061538 48 229 0.0 0.0 0.00 0.02 0.00 83 1008.1
20260506044543 49 240 0.0 0.0 0.00 0.04 0.00 81 1008.1
20260506043027 49 240 0.0 0.0 0.00 0.04 0.00 80 1008.2
20260506041526 49 242 0.0 0.0 0.00 0.04 0.00 81 1007.9
20260506040023 48 242 0.0 0.0 0.00 0.04 0.00 80 1007.9
20260506034522 49 242 0.0 0.0 0.00 0.04 0.04 80 1007.8
20260506033026 49 242 0.0 0.0 0.01 0.04 0.04 79 1008.1
20260506031537 49 242 0.0 0.0 0.01 0.04 0.04 78 1008.1
20260506030016 50 262 0.0 0.0 0.01 0.04 0.04 75 1008.3
20260506024517 51 360 0.0 0.0 0.01 0.04 0.04 68 1008.2
20260506023010 51 360 0.0 0.0 0.00 0.03 0.03 65 1008.1
20260506021507 52 360 0.0 0.0 0.00 0.03 0.03 63 1007.9
20260506020004 53 360 0.0 0.0 0.00 0.03 0.03 59 1007.9
20260506014501 54 360 0.0 0.0 0.00 0.03 0.03 57 1007.7
20260506013110 54 5 0.0 0.0 0.00 0.03 0.03 58 1007.4
20260506011601 54 5 0.0 0.0 0.00 0.03 0.03 57 1007.2
20260506010119 54 350 0.0 0.0 0.00 0.03 0.03 59 1007.2
20260506004557 55 350 0.0 0.0 0.00 0.08 0.03 58 1007.3
20260506003112 55 355 0.0 0.0 0.00 0.08 0.03 57 1007.3
20260506001602 55 294 0.0 0.0 0.00 0.08 0.03 63 1007.1
20260506000055 55 294 0.0 0.0 0.00 0.08 0.03 65 1006.6
20260505234553 56 275 0.0 0.0 0.00 0.08 0.03 66 1006.4
20260505233104 56 274 0.0 0.0 0.00 0.08 0.03 65 1006.3
20260505231552 56 273 0.0 0.0 0.00 0.08 0.03 66 1006.4
20260505230055 56 273 0.0 0.0 0.00 0.08 0.03 66 1006.3
20260505224551 56 273 0.0 0.0 0.00 0.08 0.03 66 1006.5
20260505223050 56 273 0.0 0.0 0.00 0.08 0.03 67 1006.5
20260505221551 56 272 0.0 0.0 0.00 0.08 0.03 68 1006.6
20260505220049 56 270 0.0 0.0 0.00 0.08 0.03 68 1006.7
20260505214559 56 259 0.0 0.0 0.00 0.08 0.03 68 1006.6
20260505213048 56 246 0.0 0.0 0.00 0.08 0.03 69 1006.5
20260505211548 56 246 0.0 0.0 0.00 0.08 0.03 69 1006.4
20260505210047 56 242 0.0 0.0 0.00 0.08 0.03 69 1006.5
20260505204547 56 265 0.0 0.0 0.00 0.08 0.03 69 1006.6
20260505203047 56 238 0.0 0.0 0.00 0.08 0.03 69 1006.6
20260505201552 55 235 0.0 0.0 0.00 0.08 0.03 69 1006.7
20260505200045 55 319 0.0 0.0 0.00 0.08 0.03 70 1006.8
20260505194545 55 317 0.0 0.0 0.00 0.08 0.03 69 1006.6
20260505193045 56 246 0.0 0.0 0.00 0.08 0.03 69 1006.8
20260505191555 56 296 0.0 0.0 0.00 0.08 0.03 66 1007.0
20260505190055 56 306 0.0 0.0 0.00 0.08 0.03 66 1006.9
20260505184545 56 300 0.0 0.0 0.00 0.08 0.03 69 1006.9
20260505183107 56 290 0.0 0.0 0.00 0.08 0.03 72 1006.7
20260505181540 56 311 0.0 0.0 0.01 0.08 0.03 74 1006.6
20260505180042 55 315 0.0 0.0 0.01 0.08 0.03 77 1006.6
20260505174538 54 5 0.0 0.0 0.01 0.08 0.03 78 1006.4
20260505173046 55 355 0.0 0.0 0.01 0.08 0.03 77 1006.5
20260505171543 56 9 0.0 0.0 0.00 0.07 0.02 73 1006.1
20260505170031 57 316 0.0 0.0 0.00 0.07 0.02 67 1006.0
20260505164526 59 325 0.0 0.0 0.00 0.07 0.02 59 1006.1
20260505163023 60 308 0.0 0.0 0.00 0.07 0.02 54 1006.1
20260505161521 61 319 0.0 0.0 0.00 0.07 0.02 55 1005.9
20260505153017 61 18 0.0 0.0 0.00 0.07 0.02 57 1005.2
20260505151515 61 360 0.0 0.0 0.00 0.07 0.02 57 1005.1
20260505124558 61 274 0.0 0.0 0.00 0.07 0.02 80 1002.5
20260505123057 60 304 0.0 0.0 0.00 0.07 0.02 82 1002.8
20260505121557 60 238 0.0 0.0 0.00 0.07 0.02 82 1002.9
20260505120111 60 301 0.0 0.0 0.00 0.07 0.02 83 1002.6
20260505114553 60 263 0.0 0.0 0.00 0.07 0.02 83 1002.6
20260505113050 60 284 0.0 0.0 0.00 0.07 0.02 82 1002.1
20260505111548 60 281 0.0 0.0 0.00 0.07 0.02 81 1001.5
20260505101541 61 268 0.0 0.0 0.00 0.07 0.02 80 1000.3
20260505100042 61 294 0.0 0.0 0.00 0.07 0.02 80 1000.5
20260505094542 61 279 0.0 0.0 0.00 0.07 0.02 80 1000.7
20260505093043 60 262 0.0 0.0 0.00 0.07 0.02 81 1000.6
20260505091540 61 237 0.0 0.0 0.00 0.07 0.02 81 1000.5